星链-3340 (STARLINK-3340 )

导读 | 豆包AI

STARLINK-3340是美国SpaceX公司星链(Starlink)星座的组网卫星,于2022年1月6日发射入轨。星链项目旨在构建全球低轨卫星互联网,为全球提供高速低延迟宽带服务。 该卫星属于星链的量产型卫星,运行于近地轨道,采用平板设计搭载太阳能电池阵,配备氪工质霍尔推进器,具备自主避撞能力,寿命末期会主动离轨坠入大气层烧毁,寿命约5-7年。

Basic Information
目录编号:
50824
目录名称:
STARLINK-3340
国际标识:
2022-001X
轨道中心:
EARTH
卫星名称:
星链-3340
卫星全名:
星链-3340 (STARLINK-3340 )
卫星状态:
已陨落 最后检测时间 2024-09-23
发射日期:
2022-01-06 UTC
国别 :
美国 (US)
星等 :
--
Orbit Information
数据来源 国际轨道数据
星历时间: 2024-09-23T18:43:42+0800
轨道信息已过期583天
半长轴: 6539.318km
偏心率: 0.0011657
轨道倾角: 53.189°
近地点辐角 354.977°
升交点赤经 345.591°
平近点角 85.138°
近地点: 153.56km
远地点: 168.806km
周期: 87.712分钟
每日圈数: 16.417391
Detailed Information
固有亮度:
5
最大亮度:
2.5
卫星平台:
Starlink v1.5
覆盖范围:
全球
运营商:
太空探索技术公司
运营商所在国:
美国
制造商(研发单位):
太空探索技术公司
制造商所在国:
美国
使用方式:
暂无
Satellite Introduction
星链(Starlink)计划是由太空探索技术公司(SpaceX)提出的一个巨型低轨卫星互联网星座项目,计划在2019年至2024年间在太空搭建由约1.2万颗卫星组成的“星链”网络,其中1584颗将部署在地球上空550千米处的近地轨道,并从2020年开始工作。该卫星仍在工作。